Regional Weather Roundup
Issued by NWS

Home | Current Version | Previous Version | Text Only | Print | Product List | Glossary Off
Versions: 1 2 3 4 5 6 7 8 9 10 11 12 13 14 15 16 17 18 19 20 21 22 23 24 25 26 27 28 29 30 31 32 33 34 35 36 37 38 39 40 41 42 43 44 45 46 47 48 49 50

000
ASUS43 KTOP 230008
RWRKS

WEATHER ROUNDUP FOR KANSAS
NATIONAL WEATHER SERVICE GOODLAND KS
700 PM CDT SUN APR 22 2018

NOTE:  "FAIR" INDICATES FEW OR NO CLOUDS BELOW 12,000 FEET WITH NO
SIGNIFICANT WEATHER AND/OR OBSTRUCTIONS TO VISIBILITY.

KSZ001>006-013>018-027>032-041>047-230100-
NORTHWEST KANSAS

CITY           SKY/WX    TMP DP  RH WIND       PRES   REMARKS
GOODLAND       SUNNY     55  35  47 NE3       30.14F
6HR MIN TEMP:  49; 6HR MAX TEMP:  57;

HAYS           PTSUNNY   61  37  41 E18       30.12S
HILL CITY      PTSUNNY   61  40  45 NE7       30.14F
6HR MIN TEMP:  54; 6HR MAX TEMP:  63;

RUSSELL        PTSUNNY   61  42  49 NE9       30.12S
6HR MIN TEMP:  59; 6HR MAX TEMP:  65;

$$

KSZ061>065-074>080-084>089-230100-
SOUTHWEST KANSAS

CITY           SKY/WX    TMP DP  RH WIND       PRES   REMARKS
DODGE CITY     MOSUNNY   62  37  39 NE12      30.11F
6HR MIN TEMP:  54; 6HR MAX TEMP:  63;

ELKHART        SUNNY     58  40  51 N6        30.15S
GARDEN CITY    MOSUNNY   57  37  47 E8        30.13S
6HR MIN TEMP:  51; 6HR MAX TEMP:  59;

GREAT BEND     CLOUDY    57  42  57 NE13      30.13S
LIBERAL        MOSUNNY   58  38  47 NE12      30.14S
PRATT          CLOUDY    57  39  50 NE12      30.12R
$$

KSZ066>073-081>083-090>101-230100-
SOUTHEAST KANSAS

CITY           SKY/WX    TMP DP  RH WIND       PRES   REMARKS
CHANUTE        CLOUDY    55  51  86 N6        30.04R
6HR MIN TEMP:  50; 6HR MAX TEMP:  55; 6HR PCP: TRACE;

COFFEYVILLE    CLOUDY    55  52  89 N10       30.02R
6HR MIN TEMP:  52; 6HR MAX TEMP:  55; 6HR PCP:  0.01;

HUTCHINSON     CLOUDY    57  42  57 N9        30.10S
6HR MIN TEMP:  54; 6HR MAX TEMP:  62;

MEDICINE LODGE   N/A     59  41  51 NE14G25   30.09R
NEWTON         CLOUDY    53  44  71 N12       30.09S
PARSONS        CLOUDY    54  52  93 N8        30.03R
6HR MIN TEMP:  51; 6HR MAX TEMP:  55; 6HR PCP: TRACE;

WICHITA INTL   CLOUDY    55  45  68 N12       30.08S
6HR MIN TEMP:  51; 6HR MAX TEMP:  58;

WICHITA JABRA  CLOUDY    54  46  74 NW12      30.07S
6HR MIN TEMP:  51; 6HR MAX TEMP:  55;

WICHITA MCCONL CLOUDY    55  43  66 N13       30.07S
WINFIELD       CLOUDY    53  48  83 N14       30.08R
6HR MIN TEMP:  51; 6HR MAX TEMP:  57;

$$

KSZ007>012-019>026-033>040-048>060-102>105-230100-
NORTHEAST KANSAS

CITY           SKY/WX    TMP DP  RH WIND       PRES   REMARKS
CONCORDIA      MOSUNNY   59  39  47 NE6       30.13S
6HR MIN TEMP:  56; 6HR MAX TEMP:  59;

EMPORIA        CLOUDY    59  49  69 NE10      30.05R
6HR MIN TEMP:  48; 6HR MAX TEMP:  60; 6HR PCP:  0.02;

LAWRENCE       PTSUNNY   66  43  43 E10       30.05F
6HR MIN TEMP:  56; 6HR MAX TEMP:  68;

MANHATTAN      PTSUNNY   66  44  45 NE12      30.07F
6HR MIN TEMP:  60; 6HR MAX TEMP:  67;

MARYSVILLE     CLOUDY    64  37  36 NE5       30.10S
OLATHE IND     CLOUDY    62  45  53 NE12      30.06S
6HR MIN TEMP:  55; 6HR MAX TEMP:  65;

OLATHE EXE     CLOUDY    61  45  55 E15       30.05S
6HR MIN TEMP:  54; 6HR MAX TEMP:  62;

SALINA         CLOUDY    62  42  47 N14       30.11F
6HR MIN TEMP:  59; 6HR MAX TEMP:  64;

TOPEKA BILLARD PTSUNNY   67  43  41 E14G22    30.06S
6HR MIN TEMP:  53; 6HR MAX TEMP:  69; 6HR PCP: TRACE;

TOPEKA FORBES  PTSUNNY   65  44  46 E12       30.06S
6HR MIN TEMP:  51; 6HR MAX TEMP:  68; 6HR PCP: TRACE;

$$



USA.gov is the U.S. government's official web portal to all federal, state and local government web resources and services.